This is the latest recevied weather packets stored in our database for station/object IW1QQG-13. If no packets are shown the sender has not sent any weather packets the latest 10 day(s).
| Time | Temp. | Humidity | Pressure | Rain* | Wind** | Luminosity | Snow |
|---|---|---|---|---|---|---|---|
| 1777927550 | 16.11° C | 68% | 1015.9 hPa | 0 mm | - | 0 W/m² | - |
| 1777926950 | 16.11° C | 69% | 1015.9 hPa | 0 mm | - | 0 W/m² | - |
| 1777926350 | 16.11° C | 68% | 1015.9 hPa | 0 mm | - | 0 W/m² | - |
| 1777925750 | 15.56° C | 70% | 1015.9 hPa | 0 mm | - | 0 W/m² | - |
| 1777925150 | 16.11° C | 69% | 1015.6 hPa | 0 mm | - | 0 W/m² | - |
| 1777924550 | 15.56° C | 73% | 1015.6 hPa | 0 mm | - | 0 W/m² | - |
| 1777923950 | 15.56° C | 71% | 1015.6 hPa | 0 mm | - | 0 W/m² | - |
| 1777923350 | 16.11° C | 70% | 1015.6 hPa | 0 mm | - | 0 W/m² | - |
| 1777922750 | 16.11° C | 67% | 1015.9 hPa | 0 mm | - | 0 W/m² | - |
| 1777922151 | 16.11° C | 65% | 1015.9 hPa | 0 mm | - | 0 W/m² | - |
| 1777921550 | 16.67° C | 62% | 1015.9 hPa | 0 mm | - | 0 W/m² | - |
| 1777920950 | 16.67° C | 61% | 1015.9 hPa | 0 mm | - | 0 W/m² | - |
| 1777920351 | 17.22° C | 60% | 1015.9 hPa | 0 mm | - | 0 W/m² | - |
| 1777919750 | 17.22° C | 57% | 1015.9 hPa | 0 mm | - | 0 W/m² | - |
| 1777919150 | 17.22° C | 56% | 1015.6 hPa | 0 mm | - | 1 W/m² | - |
| 1777918550 | 17.22° C | 54% | 1015.6 hPa | 0 mm | - | 2 W/m² | - |
| 1777917350 | 17.22° C | 51% | 1015.6 hPa | 0 mm | - | 8 W/m² | - |
| 1777916750 | 17.22° C | 51% | 1015.9 hPa | 0 mm | - | 10 W/m² | - |
| 1777916150 | 17.22° C | 52% | 1015.6 hPa | 0 mm | - | 16 W/m² | - |
| 1777915550 | 17.22° C | 51% | 1015.6 hPa | 0 mm | - | 17 W/m² | - |
| 1777914950 | 17.22° C | 54% | 1015.6 hPa | 0 mm | - | 25 W/m² | - |
| 1777914350 | 17.22° C | 53% | 1015.6 hPa | 0 mm | - | 31 W/m² | - |
| 1777913750 | 17.22° C | 56% | 1015.6 hPa | 0 mm | - | 37 W/m² | - |
| 1777913150 | 17.22° C | 55% | 1015.9 hPa | 0 mm | - | 20 W/m² | - |
| 1777912550 | 17.22° C | 59% | 1015.6 hPa | 0 mm | - | 40 W/m² | - |
* Rain latest hour (hover to see other rain measurements)
** Current wind speed in m/s (hover to see current wind gust speed)